This is the latest recevied weather packets stored in our database for station/object K8RRT. If no packets are shown the sender has not sent any weather packets the latest 10 day(s).
| Time | Temp. | Humidity | Pressure | Rain* | Wind** | Luminosity | Snow |
|---|---|---|---|---|---|---|---|
| 1788475967 | 33.33° C | 64% | 1010.9 hPa | 0 mm | - | 50 W/m² | - |
| 1788475663 | 33.89° C | 62% | 1010.7 hPa | 0 mm | - | 55 W/m² | - |
| 1788475359 | 33.89° C | 63% | 1011 hPa | 0 mm | - | 56 W/m² | - |
| 1788475054 | 34.44° C | 62% | 1010.5 hPa | 0 mm | - | 56 W/m² | - |
| 1788474752 | 34.44° C | 61% | 1010.5 hPa | 0 mm | - | 98 W/m² | - |
| 1788474447 | 34.44° C | 59% | 1010.6 hPa | 0 mm | - | 118 W/m² | - |
| 1788474146 | 34.44° C | 60% | 1010.7 hPa | 0 mm | - | 147 W/m² | - |
| 1788473841 | 34.44° C | 59% | 1010.5 hPa | 0 mm | - | 163 W/m² | - |
| 1788473540 | 34.44° C | 58% | 1010.5 hPa | 0 mm | - | 169 W/m² | - |
| 1788473239 | 35° C | 60% | 1010.2 hPa | 0 mm | - | 184 W/m² | - |
| 1788472934 | 35.56° C | 59% | 1010.5 hPa | 0 mm | - | 201 W/m² | - |
| 1788472633 | 35° C | 60% | 1010.4 hPa | 0 mm | - | 195 W/m² | - |
| 1788472328 | 35° C | 59% | 1010.3 hPa | 0 mm | - | 218 W/m² | - |
| 1788472026 | 35.56° C | 59% | 1010.3 hPa | 0 mm | - | 241 W/m² | - |
| 1788471722 | 35.56° C | 58% | 1010.3 hPa | 0 mm | - | 262 W/m² | - |
| 1788471416 | 35.56° C | 59% | 1010.5 hPa | 0 mm | - | 268 W/m² | - |
| 1788471112 | 35.56° C | 59% | 1010.6 hPa | 0 mm | - | 267 W/m² | - |
| 1788470808 | 35.56° C | 59% | 1010.6 hPa | 0 mm | - | 252 W/m² | - |
| 1788470503 | 35.56° C | 58% | 1010.7 hPa | 0 mm | - | 328 W/m² | - |
| 1788470215 | 35.56° C | 57% | 1010.6 hPa | 0 mm | - | 359 W/m² | - |
| 1788469895 | 35.56° C | 58% | 1010.6 hPa | 0 mm | - | 383 W/m² | - |
| 1788469590 | 35.56° C | 57% | 1010.7 hPa | 0 mm | - | 287 W/m² | - |
| 1788469286 | 35.56° C | 58% | 1010.8 hPa | 0 mm | - | 283 W/m² | - |
| 1788468985 | 35.56° C | 56% | 1010.8 hPa | 0 mm | - | 404 W/m² | - |
| 1788468679 | 35.56° C | 57% | 1011 hPa | 0 mm | - | 408 W/m² | - |
* Rain latest hour (hover to see other rain measurements)
** Current wind speed in m/s (hover to see current wind gust speed)